Regional Weather Roundup
Issued by NWS Charleston, SC

Current Version | Previous Version | Text Only | Print | Product List | Glossary Off
Versions: 1 2 3 4 5 6 7 8 9 10 11 12 13 14 15 16 17 18 19 20 21 22 23 24 25 26 27 28 29 30 31 32 33 34 35 36 37 38 39 40 41 42 43 44 45 46 47 48 49 50

390
ASUS42 KCHS 261327
RWRCHS

REGIONAL WEATHER ROUNDUP
NATIONAL WEATHER SERVICE CHARLESTON SC
900 AM EDT WED JUL 26 2017

NOTE: "FAIR" INDICATES FEW OR NO CLOUDS BELOW 12,000 FEET WITH NO
SIGNIFICANT WEATHER AND/OR OBSTRUCTIONS TO VISIBILITY.

NOT ALL STATIONS ARE QUALITY CONTROLLED. USE DATA WITH CAUTION...
ESPECIALLY DEWPOINT OBSERVATIONS.

SCZ027-030-031-034>040-042>050-261400-
...SOUTHEAST SOUTH CAROLINA...

CITY           SKY/WX    TMP DP  RH WIND       PRES   REMARKS
N CHARLESTON   LGT RAIN  75  73  93 E6        30.10S
WATERFRONT PRK   N/A     80  76  87 N5        30.09R
JOHNS ISLAND   PTSUNNY   79  77  94 CALM      30.11S
PINOPOLIS        N/A     79  75  89 CALM      30.05R
MONCKS CORNER  FAIR      77  73  88 CALM      30.11S
SUMMERVILLE    FAIR      77  73  88 N5        30.12S
BEAUFORT MCAS  CLOUDY    80  77  90 NW3       30.11S THUNDER
BEAUFORT ARPT  FAIR      77  75  94 CALM      30.11S THUNDER
HILTON HEAD IS TSTM      77  75  94 S14       30.12R
WALTERBORO     NOT AVBL
ALLENDALE      NOT AVBL

...SOUTHERN MIDLANDS AND PEE DEE...

CITY           SKY/WX    TMP DP  RH WIND       PRES   REMARKS
GEORGETOWN     CLOUDY    77  77 100 CALM      30.12S
KINGSTREE      CLOUDY    77  75  94 NE7       30.13R
ORANGEBURG     PTSUNNY   79  72  79 N6        30.12R
BARNWELL       FAIR      84  75  74 CALM      30.12S HX  92
AIKEN          FAIR      77  72  83 N3        30.16F
MANNING        CLOUDY    79  73  83 E3        30.12S
COLUMBIA       MOSUNNY   80  73  79 E6        30.12R
SUMTER         CLOUDY    77  73  88 E6        30.12R FOG
FLORENCE       CLOUDY    78  75  90 NE10      30.14R
MYRTLE BEACH   CLOUDY    81  77  89 NE10      30.13R
N MYRTLE BEACH CLOUDY    80  75  84 NE9       30.12R

$$

GAZ063-065-086>088-099>101-113>116-118-119-134>141-150-261400-
...SOUTHEAST GEORGIA...

CITY           SKY/WX    TMP DP  RH WIND       PRES   REMARKS
SAVANNAH ARPT  CLOUDY    75  73  93 CALM      30.11F
HUNTER AAF     CLOUDY    75  73  94 CALM      30.08F
FORT STEWART   PTSUNNY   76  73  90 N5        30.10R
STATESBORO     CLOUDY    76  76 100 CALM      30.12F
SYLVANIA       CLOUDY    75  75 100 CALM      30.13S
CLAXTON        PTSUNNY   79  74  85 CALM      30.12S

...CSRA...CENTRAL AND FAR SOUTHEAST GEORGIA...

CITY           SKY/WX    TMP DP  RH WIND       PRES   REMARKS
THOMSON        PTSUNNY   79  68  69 NE6       30.19R
AUGUSTA-BUSH   PTSUNNY   80  74  81 CALM      30.12R
AUGUSTA-DANIEL CLOUDY    80  70  71 N6        30.13R
SWAINSBORO     CLOUDY    77  75  94 SE3       30.14S
VIDALIA        CLOUDY    79  73  83 E6        30.12S
EASTMAN        CLOUDY    75  75 100 CALM      30.15S
HAZLEHURST     PTSUNNY   77  77 100 CALM      30.11S
ALMA           CLOUDY    76  74  93 CALM      30.11S FOG
WAYCROSS       CLOUDY    79  79 100 S3        30.11F
JESUP          NOT AVBL
BAXLEY         CLOUDY    77  77 100 CALM      30.11S
BRUNSWICK      CLOUDY    77  77 100 W5        30.12R
SAINT SIMONS   PTSUNNY   79  76  90 W5        30.11R

$$

SCZ027-028-034-036>038-045-046-048>050-GAZ119-141-261400-
...LAKE AND SUPPLEMENTAL COASTAL OBSERVATIONS...

STATION/POSITION TIME  TEMP    WIND        PRES    WAVE   SWELL
                       AIR SEA DIR/SP/G            HT/PER HT/PER/DIR
                 (UTC) (F)     (DEG/KT/KT) (MB)    (FT/S) (FT/S/D)
WINYAH BAY       1245   81      70/  9     1019.0S
LAKE MURRAY      1250   78      70/  5/ 11 1019.6R
ACE BASIN NERRS  1245   77        CALM     1020.0S
FORT PULASKI     1300   76 85  330/  5/  6 1019.7
SAPELO ISLAND    1300   78        CALM     1020.0

$$

ANZ835-935-AMZ111-154-330-350-352-354-370-450-454-472-261400-
...C-MAN AND BUOY OBSERVATIONS...

STATION/POSITION TIME  TEMP    WIND        PRES    WAVE   SWELL
                       AIR SEA DIR/SP/G            HT/PER HT/PER/DIR
                 (UTC) (F)     (DEG/KT/KT) (MB)    (FT/S) (FT/S/D)
BUOY 41004       1310   79 83  200/ 14/ 16 1019.0
BUOY 41008       1250   80 81  210/  4/  6 1019.0R   2/ 8   2/140/ 8
FOLLY BEACH CMAN 1300   79     170/  2/  2 1020.1R
CAPERS NEARSHORE 1308   78 84   30/  4/  6 1019.4R
FRIPP NEARSHORE  1308   80 84  140/ 12/ 19 1018.5F


STATION/POSITION TIME  TEMP    WIND        PRES    WAVE   SWELL
                       AIR SEA DIR/SP/G            HT/PER HT/PER/DIR
                 (UTC) (F)     (DEG/KT/KT) (MB)    (FT/S) (FT/S/D)
5E ST. MARYS GA  1300      78                N/A     2/ 9
FRYING PAN BUOY  1310   82 82  110/  6/  6 1019.0
BUOY 41025       1250   81 83   50/ 12/ 16 1020.1R   3/ 5   2/ 60/ 7
CAPE LOOKOUT NC  1300   78      40/ 15/ 16 1019.9S
BUOY 41002       1250   81 83  200/  6/  8 1019.4F   3/10   2/ 90/10
BUOY 41010       1310   85 84  210/  8/ 10 1019.6
ST AUGUSTINE FL  1300   80 74  250/  5/  6 1019.8R


$$




USA.gov is the U.S. government's official web portal to all federal, state and local government web resources and services.